Theta_e
335 334 332 330 330 329 330 331 330 327 323 324 324 322 324 323 323 324 323 321 315 314 320 325 326 327 327 326 327 327 327 329 331 332 331 329 329 328 328 327 324 324 323 323 324 325 325 323 322 322 320 317 315 312 311 310 309 310 310 309 310 310 309 310 309 308 308 308 308 308 308 307 307 307 306 306 306 306 305 305 305 304 305 304 304
336 335 333 330 329 330 331 331 331 329 325 324 324 323 325 324 321 321 321 319 316 312 316 324 327 327 328 327 328 328 328 329 331 331 330 329 328 328 328 327 324 323 323 324 324 325 325 323 322 322 320 318 315 313 311 311 310 310 310 310 310 309 309 308 306 307 308 308 308 307 307 307 307 306 305 306 305 305 305 304 304 305 304 304 304
336 335 333 331 329 330 331 331 331 330 327 325 324 325 325 323 316 314 317 318 315 311 313 322 326 327 328 327 328 329 329 330 330 330 330 329 328 328 328 326 324 324 324 324 324 326 326 323 323 322 320 318 316 313 311 311 310 310 310 309 309 309 309 307 304 307 308 307 307 307 306 306 306 305 305 305 305 305 304 304 304 304 303 303 303
333 335 334 331 328 330 331 331 332 331 330 327 325 326 325 321 315 312 315 315 313 311 312 319 324 326 327 327 327 328 329 330 330 330 330 329 328 328 327 325 324 324 324 324 324 326 325 323 322 321 320 318 316 314 311 310 310 310 309 309 309 309 310 308 305 307 307 306 306 306 306 306 305 304 304 304 305 304 303 304 304 303 303 303 302
325 331 334 332 328 330 332 330 331 331 331 329 326 326 324 321 317 316 317 315 313 312 311 315 322 324 325 326 327 328 329 330 330 330 330 329 328 327 325 325 325 325 325 324 324 326 324 322 322 321 320 318 316 314 312 310 309 309 309 309 310 310 310 308 305 306 307 305 305 305 305 305 304 304 304 304 304 304 303 303 303 302 303 303 302
317 324 331 334 330 330 331 330 330 331 331 330 327 326 324 322 319 318 318 315 312 312 311 313 320 325 325 325 327 328 329 329 329 330 330 329 329 327 324 324 324 325 324 323 324 324 323 321 321 321 319 318 316 314 312 310 309 309 310 310 310 310 310 308 305 306 306 304 303 304 304 304 304 303 303 303 303 303 302 302 302 302 302 302 302
317 325 330 333 332 331 330 330 330 330 331 331 328 326 324 322 320 319 318 315 313 311 311 313 319 325 326 324 325 327 328 329 329 329 329 328 328 326 324 325 325 324 323 323 322 322 322 321 320 320 319 319 317 314 312 310 310 310 310 309 309 310 310 308 304 305 305 304 303 304 303 303 303 303 303 303 302 303 302 302 302 301 301 302 302
317 326 330 331 332 332 331 330 330 331 332 332 330 327 325 323 321 320 319 316 312 312 313 314 321 328 327 324 324 326 327 328 329 328 327 327 327 326 324 324 325 324 323 322 321 321 321 319 319 319 318 318 317 315 313 310 310 310 309 308 309 310 309 308 304 303 305 304 304 304 302 302 303 303 303 302 302 302 302 301 301 300 301 301 301
313 322 328 330 331 332 331 331 331 331 332 332 331 328 327 325 322 320 318 316 312 312 314 315 322 330 328 324 324 326 327 327 328 327 326 326 326 325 324 324 324 323 322 321 320 320 319 318 318 318 317 316 316 315 313 310 309 309 309 309 310 310 309 307 303 303 305 305 304 304 302 302 303 303 302 302 302 302 301 301 300 300 301 300 299
308 316 323 326 328 330 331 331 331 331 331 331 331 329 328 326 323 320 318 317 313 312 314 315 320 328 328 323 324 328 328 328 328 326 326 326 325 324 323 324 324 323 323 321 320 319 318 317 317 317 315 315 314 314 313 310 308 308 309 308 309 309 308 306 303 304 305 305 304 303 302 302 303 302 302 302 302 301 301 301 300 300 300 300 299
305 309 314 318 321 325 328 330 330 330 330 330 329 327 327 327 324 321 318 317 315 312 314 314 316 322 322 321 325 328 328 328 328 327 326 326 325 324 323 323 323 324 323 322 320 319 318 317 316 315 314 314 313 313 312 310 307 307 308 307 309 309 307 306 302 303 305 304 304 303 303 303 303 302 302 301 301 301 300 300 300 300 300 299 299
307 308 310 311 313 317 321 327 329 328 329 329 328 327 327 328 324 321 320 318 316 313 314 315 318 320 319 320 326 327 327 328 327 327 326 325 325 324 323 323 323 323 323 321 320 320 319 316 315 314 313 312 312 311 311 310 307 306 306 306 308 309 307 305 302 303 304 304 303 303 302 302 302 302 302 301 301 302 300 299 300 300 299 299 299
310 310 310 309 309 310 315 324 328 327 328 328 328 328 328 328 324 320 320 318 316 315 314 317 321 322 320 323 326 326 326 326 326 326 325 324 324 324 323 322 322 322 322 320 320 319 318 316 315 313 313 312 311 310 309 308 307 305 305 305 307 308 306 305 303 303 304 304 303 303 302 302 301 301 301 301 302 301 300 299 300 299 299 299 298
312 311 310 310 309 308 310 319 326 326 327 327 328 329 327 326 324 320 320 318 316 315 314 316 321 322 323 323 322 324 324 324 324 324 324 324 323 323 322 321 321 322 321 319 319 319 317 316 314 313 313 313 312 311 309 307 306 305 304 303 306 307 306 305 304 302 303 304 302 302 302 301 301 301 301 301 301 300 300 299 299 299 299 298 298
311 311 311 310 310 309 309 314 320 323 325 326 326 327 324 324 325 322 320 318 317 316 314 314 318 319 322 322 320 322 321 321 322 322 322 322 322 322 321 321 322 321 320 319 319 319 317 315 313 312 312 313 312 311 309 308 306 305 304 303 304 305 305 306 305 303 303 303 302 302 302 300 300 300 300 301 300 300 299 299 298 299 299 298 298
311 311 311 310 310 310 309 310 313 318 323 324 325 325 324 325 327 323 320 319 318 318 318 317 316 315 319 322 320 319 318 319 321 321 321 321 320 320 320 321 321 320 319 318 318 317 316 314 312 311 312 312 312 311 310 308 307 306 305 303 302 303 304 305 305 303 302 303 302 302 302 300 300 300 300 300 300 300 299 298 298 298 298 297 297
311 311 310 311 310 310 310 309 309 312 318 322 323 323 325 326 328 325 320 319 319 319 320 321 319 316 317 320 319 317 318 320 321 319 319 320 320 319 319 320 320 319 319 318 317 316 315 314 312 312 311 311 311 310 309 308 307 308 307 304 303 303 303 305 306 304 302 302 302 302 302 301 300 300 299 299 299 299 299 298 298 297 297 296 296
310 310 310 310 310 310 310 309 310 311 313 320 323 323 325 327 327 327 323 319 318 318 320 321 320 317 314 316 320 319 320 321 319 318 317 318 319 319 319 319 318 318 318 317 316 315 314 313 312 312 311 311 310 309 309 308 307 308 307 305 304 304 304 304 305 304 302 302 302 302 302 301 300 299 299 299 299 298 298 298 297 296 295 295 295
310 310 310 311 311 311 311 309 312 313 310 314 321 321 324 327 328 329 325 319 317 316 317 318 319 318 315 316 321 322 321 321 320 319 317 316 318 318 318 318 318 318 317 316 315 314 314 313 312 311 311 310 309 308 308 307 306 305 305 303 303 305 305 305 305 304 302 301 301 301 301 301 300 299 299 299 298 298 298 297 297 295 294 295 295
310 310 311 311 311 311 311 310 312 314 310 310 318 320 321 325 327 327 324 318 317 316 316 316 318 319 318 319 323 322 321 321 322 320 318 317 316 317 317 318 318 317 316 315 314 314 314 313 312 311 310 310 308 308 307 306 304 302 302 301 301 304 306 305 305 304 303 301 301 301 301 300 300 299 299 298 298 298 297 297 296 295 295 295 295
310 311 311 312 312 311 312 311 312 314 311 308 315 319 319 321 324 324 321 317 316 316 316 316 317 318 318 319 321 322 321 320 321 320 319 319 316 315 316 316 316 316 315 315 315 314 314 313 312 311 310 309 308 307 306 305 303 301 301 300 300 303 306 305 305 304 303 302 301 301 300 300 300 299 299 298 298 297 297 296 295 295 295 295 296
310 311 311 312 312 312 312 312 312 313 312 308 312 317 317 319 324 324 320 317 315 315 316 317 316 317 317 317 318 320 320 319 320 320 319 319 317 316 316 316 316 315 315 315 315 314 314 313 312 311 310 309 308 306 305 304 302 301 301 300 299 302 305 305 305 304 304 302 301 300 300 300 300 299 298 298 297 297 297 296 295 294 295 295 296
311 311 311 311 312 313 313 313 314 314 313 310 310 314 317 319 323 324 319 316 316 315 316 317 316 316 317 318 317 317 318 320 320 319 319 319 318 317 316 316 315 315 315 315 314 314 314 313 313 312 310 309 308 307 305 304 303 302 301 300 299 301 303 304 305 304 304 303 301 300 300 299 299 299 298 298 297 297 296 295 294 295 295 295 295
313 312 312 311 312 313 313 314 315 315 313 310 310 314 316 316 320 322 319 316 316 316 317 317 316 316 315 316 317 317 319 320 318 318 319 319 319 318 316 315 314 314 315 314 314 314 314 313 312 311 311 310 309 308 306 305 303 302 301 300 299 300 301 302 303 304 304 303 302 300 300 299 299 299 298 297 297 296 296 295 295 295 295 295 294
315 314 313 313 313 313 313 314 315 314 311 310 312 316 316 316 317 319 318 317 317 317 317 316 315 315 314 313 315 317 318 317 315 315 317 318 318 318 317 315 314 314 314 314 314 314 313 313 312 311 311 311 310 309 307 305 303 302 301 300 299 299 300 301 302 304 304 304 303 301 300 299 299 298 298 297 296 295 295 295 295 295 295 294 293
316 316 315 315 314 313 313 314 313 312 311 310 314 317 317 315 316 317 318 318 317 316 316 315 314 313 313 313 313 315 316 316 315 316 319 319 319 319 318 315 313 314 314 313 313 313 313 313 312 312 312 312 311 310 308 306 304 302 301 300 300 299 300 300 301 303 304 304 303 301 300 299 299 298 297 296 296 295 295 295 294 294 294 293 293
317 316 315 315 315 313 312 313 312 311 312 312 313 315 316 316 316 317 318 317 316 316 316 315 314 313 314 315 315 316 317 317 318 319 319 318 318 319 318 315 312 311 312 312 312 313 313 313 312 312 313 312 311 311 309 307 305 303 301 300 300 300 300 300 300 302 303 304 303 302 300 299 299 298 297 296 295 295 294 294 294 293 293 293 293
318 316 315 315 314 312 312 311 312 311 312 313 314 314 316 316 315 315 317 317 316 316 316 315 314 313 314 315 316 317 318 319 319 319 317 317 318 317 315 315 314 311 310 310 311 312 312 312 312 313 312 312 312 311 309 307 306 304 302 301 300 300 299 300 300 300 302 303 303 302 301 300 299 298 297 296 295 295 294 293 293 292 292 293 292
318 315 314 314 313 312 312 311 311 311 311 312 314 315 316 316 315 315 317 318 317 316 316 315 314 313 314 315 316 317 317 317 318 318 317 317 317 316 316 316 316 315 313 311 312 313 314 313 313 313 313 312 312 311 309 308 307 305 303 301 301 300 299 299 300 300 301 302 302 302 301 300 299 299 297 296 295 294 293 293 293 292 292 292 292
319 316 314 313 313 313 312 313 313 312 313 313 313 315 317 317 316 316 317 317 317 317 316 315 314 313 314 315 316 316 315 315 315 315 315 315 316 317 318 318 319 319 317 316 316 316 315 315 314 314 313 312 312 312 311 309 308 306 304 302 301 300 299 298 299 301 300 300 301 301 301 301 300 299 298 296 295 294 294 293 293 292 292 292 292
319 317 316 314 314 315 314 315 316 314 314 314 313 315 316 317 317 317 316 316 317 317 316 316 315 314 314 314 314 314 314 314 314 314 315 316 317 318 318 319 319 319 318 318 318 317 317 316 315 314 314 313 312 312 311 311 309 307 305 303 301 300 299 298 299 300 300 300 300 300 300 300 299 299 298 297 295 295 294 294 293 293 292 292 292
319 318 318 316 315 315 315 315 316 315 314 314 314 315 316 317 317 317 317 316 317 317 316 316 315 314 313 313 314 314 315 314 314 315 316 317 317 318 318 318 318 318 318 317 317 317 316 315 314 314 314 314 313 312 312 311 310 308 305 304 302 301 299 299 299 300 301 300 300 299 299 298 299 299 299 297 296 295 294 294 294 293 292 292 292
319 319 318 318 316 316 316 316 316 316 316 316 316 316 316 317 317 318 317 317 317 317 317 316 316 315 315 315 315 315 315 316 315 315 316 316 316 317 317 317 317 317 317 316 316 316 316 315 315 315 315 314 314 313 312 312 310 309 307 305 304 301 300 299 299 300 300 300 300 299 298 297 298 299 299 297 296 295 295 294 294 293 293 292 291
317 319 318 318 318 317 316 316 317 318 317 317 317 317 317 317 318 318 318 317 318 317 317 317 317 317 317 317 317 317 317 316 316 315 315 315 315 314 315 315 315 315 316 316 316 316 316 317 316 315 315 314 314 313 313 313 312 310 308 307 305 302 300 299 299 299 299 300 300 299 298 298 298 298 298 296 294 294 294 294 293 293 291 290 290
314 317 319 318 318 318 317 317 317 318 318 318 317 318 318 318 319 319 318 318 318 318 318 318 318 318 318 318 318 318 317 317 316 316 315 315 315 314 313 314 314 314 315 316 316 316 316 316 315 315 315 314 314 314 313 313 312 310 308 307 306 304 301 299 299 299 299 299 300 299 298 297 297 297 296 294 293 294 294 293 292 291 290 290 290
314 315 317 318 318 318 318 318 318 318 318 318 318 318 319 319 320 320 319 319 319 319 319 319 319 319 319 319 318 318 317 317 316 317 316 316 316 315 314 314 314 315 315 315 315 315 315 315 315 314 314 314 314 314 313 312 311 309 308 307 306 304 301 299 299 299 298 298 299 299 298 297 296 296 295 294 294 294 294 292 290 289 289 290 290
313 315 315 316 318 318 318 318 318 319 318 318 318 319 319 319 319 320 320 320 320 320 320 320 320 320 320 320 319 319 318 317 317 317 317 317 316 316 316 316 316 316 316 315 315 315 314 314 314 314 314 314 314 313 313 312 311 309 307 306 305 303 300 298 298 298 299 299 299 298 298 296 296 295 294 293 293 294 293 291 289 288 288 289 289
307 313 315 315 316 318 319 319 318 318 318 318 318 319 319 319 319 320 320 320 321 321 321 321 321 321 321 321 320 319 319 318 318 318 318 318 317 317 317 317 317 317 316 316 315 315 314 313 313 314 314 314 314 313 313 312 311 310 308 306 305 302 299 297 297 298 298 298 298 298 297 296 295 294 293 293 292 292 292 291 289 288 287 288 289
301 306 312 316 317 317 317 318 319 319 318 318 319 319 319 319 319 319 319 319 320 321 321 321 321 321 320 320 320 319 319 318 318 318 318 318 318 317 317 317 317 317 316 316 315 314 313 312 312 313 313 313 313 312 312 311 310 309 308 307 305 302 299 296 296 297 298 298 298 297 297 296 295 294 294 293 292 292 291 290 289 288 287 287 289
300 300 303 310 315 318 317 317 317 318 319 319 319 319 319 319 319 319 319 319 319 320 320 320 320 319 319 319 319 318 318 318 318 318 318 318 318 318 317 317 317 317 316 316 315 314 313 312 312 312 312 312 311 311 310 309 308 309 309 307 305 303 301 298 296 296 297 297 297 297 296 296 295 294 294 293 291 291 291 290 289 288 287 288 289
301 301 300 301 306 312 316 318 317 317 317 318 318 318 318 318 318 318 318 318 318 318 318 318 318 318 318 318 318 318 317 317 317 317 317 318 318 318 318 317 317 317 317 316 315 314 312 311 311 310 310 310 310 310 310 310 311 311 309 307 304 303 301 298 296 295 295 296 296 296 296 295 295 294 293 292 291 292 292 291 289 288 287 288 290
301 301 301 300 300 302 308 313 317 318 318 318 318 318 318 318 318 317 318 318 318 318 318 317 317 317 317 317 317 317 317 317 316 316 316 316 316 317 317 317 316 316 316 315 314 313 312 311 311 310 310 309 310 311 311 311 311 310 309 307 305 302 298 296 296 295 294 294 294 295 295 294 294 293 292 291 291 293 293 292 289 287 287 289 290
301 301 300 301 301 300 301 303 308 313 317 318 319 319 318 318 318 317 317 317 317 317 317 317 317 317 317 316 316 316 315 315 315 315 315 315 315 315 315 315 314 315 314 314 314 313 312 311 311 310 310 310 310 311 311 310 309 309 309 307 305 302 300 298 298 297 297 296 294 293 294 293 293 293 292 291 292 293 294 292 289 287 287 289 290
301 301 301 301 301 301 300 300 301 303 307 312 315 317 318 318 317 317 316 316 316 316 316 316 315 315 315 315 315 314 314 314 313 313 313 313 313 313 313 313 313 313 313 313 313 312 312 311 311 310 310 310 310 310 310 310 309 309 308 305 303 303 302 302 301 301 301 299 295 293 293 293 292 292 291 291 293 294 294 292 288 286 287 288 290
302 301 301 301 301 301 300 300 300 300 300 302 305 309 312 314 316 316 316 316 315 315 315 315 314 314 314 313 313 313 313 313 312 312 312 312 312 311 311 311 311 311 311 311 311 311 311 311 310 310 310 310 309 309 310 310 309 308 307 305 304 303 302 302 302 302 301 299 296 294 293 292 292 291 291 292 293 295 295 292 288 285 286 288 290
303 303 302 301 301 301 301 300 300 300 300 300 300 301 303 305 308 310 312 313 314 315 315 314 314 314 314 313 313 313 312 312 312 311 311 311 310 310 310 309 309 309 309 309 309 309 309 309 309 309 309 309 309 309 309 308 308 307 307 306 306 304 303 302 300 299 298 297 295 294 293 293 292 291 291 292 294 295 294 291 287 285 286 288 291
303 303 303 302 302 301 301 301 301 300 300 300 300 300 300 300 301 302 304 306 308 310 310 311 312 312 312 312 312 312 312 312 312 311 311 310 310 309 308 308 308 308 308 308 308 308 308 308 308 308 308 308 308 308 307 307 307 306 306 305 304 303 302 300 298 297 296 294 293 293 294 294 293 292 292 293 295 295 294 290 287 285 285 288 291
303 303 303 302 302 302 301 301 301 301 301 300 300 299 299 299 299 300 300 300 301 302 303 303 304 305 305 306 306 307 307 307 308 309 309 309 309 308 307 307 307 307 307 307 307 307 307 307 307 307 307 307 307 306 306 306 305 304 304 303 301 300 299 298 296 296 295 293 292 292 292 293 294 293 293 294 295 295 293 289 286 285 286 289 291
303 303 303 303 302 302 302 301 301 301 301 301 300 300 300 299 299 299 299 299 299 299 299 300 300 300 300 300 301 301 301 301 301 302 303 304 304 305 305 306 306 306 306 307 307 306 306 306 306 306 306 305 305 305 304 304 303 303 302 302 301 300 299 297 297 297 296 295 294 292 291 292 293 293 293 293 294 294 292 288 286 285 287 289 290
303 303 303 303 303 302 302 302 302 302 301 301 301 301 300 300 300 300 300 300 300 300 300 300 299 299 299 299 299 299 299 299 299 298 299 299 299 300 301 302 304 305 305 306 307 307 307 306 305 305 304 304 304 304 303 303 302 302 302 302 302 301 300 299 299 298 296 295 295 293 291 291 292 292 291 292 293 294 291 287 285 285 287 289 290
303 303 303 303 303 303 303 302 302 302 302 302 301 301 301 300 300 300 300 300 300 300 300 300 300 299 299 299 298 298 298 298 298 298 298 298 298 297 297 298 300 301 302 304 305 306 306 305 305 305 304 304 304 303 303 302 302 302 302 302 301 301 300 300 300 298 295 295 295 293 292 292 292 292 291 292 293 293 290 287 285 286 287 289 290
Wind_Speed
49 45 43 44 43 42 42 41 40 41 39 33 32 33 32 35 34 33 32 29 33 34 30 29 27 27 27 28 29 28 29 29 28 29 32 32 30 28 27 26 25 23 19 16 13 9 8 8 9 9 8 8 8 8 9 10 11 12 12 12 13 13 14 14 13 13 13 14 14 13 13 13 13 12 12 13 13 12 13 13 12 13 12 13 14
53 53 48 47 47 43 45 45 42 44 43 37 37 35 32 35 35 33 31 30 33 36 33 31 28 27 28 29 29 27 28 29 28 31 35 33 30 28 26 25 24 22 19 16 12 9 6 8 9 7 6 7 8 8 8 10 11 12 12 12 13 13 13 12 12 13 13 13 13 13 13 13 12 12 12 13 12 12 12 12 12 12 12 13 13
50 55 52 49 50 48 47 46 42 45 46 43 42 36 32 35 36 34 32 32 35 38 36 33 31 29 28 30 30 28 28 29 29 31 34 34 31 29 25 24 22 20 17 14 12 9 6 8 8 6 6 7 7 7 7 9 11 11 12 12 12 12 13 11 10 12 12 12 12 12 12 12 11 11 11 12 12 12 12 12 12 11 12 13 13
42 48 52 51 53 52 48 46 44 48 49 46 45 40 37 37 37 35 32 35 39 39 37 35 35 32 31 32 32 31 28 30 32 32 33 33 31 29 26 24 22 19 16 15 13 10 8 9 8 6 7 6 7 7 6 9 10 11 11 12 12 13 13 11 9 12 12 11 11 11 11 12 11 11 11 11 12 11 11 12 11 11 12 12 12
38 42 48 51 53 52 50 51 51 53 53 49 49 46 42 40 39 36 34 36 39 40 39 37 36 34 35 34 33 32 29 31 35 34 35 33 31 29 27 25 23 20 17 16 14 10 10 10 8 7 7 6 6 6 7 9 10 12 12 12 13 13 13 11 9 11 11 10 10 10 11 11 10 10 10 11 11 10 10 11 11 11 12 12 12
35 38 44 49 53 55 56 56 55 56 55 54 53 49 45 44 42 40 38 39 40 42 42 39 37 35 36 36 33 33 31 33 37 37 37 35 32 30 27 25 23 21 19 16 14 11 12 11 8 7 7 6 5 6 7 8 10 12 13 13 13 13 13 10 8 10 10 9 9 9 9 10 10 10 10 10 10 10 10 10 11 11 11 11 12
32 35 41 46 53 59 61 61 61 59 58 58 56 52 48 47 45 43 41 40 41 44 44 40 38 37 37 36 35 34 32 35 39 39 38 36 34 31 28 27 24 22 20 17 15 13 12 11 9 8 6 5 4 5 5 7 11 13 13 12 13 13 13 10 8 9 10 8 9 9 8 9 10 10 10 10 10 10 10 10 10 10 11 11 11
33 35 38 42 49 56 60 64 65 63 61 60 58 55 52 49 48 47 44 42 42 44 45 41 39 39 39 36 33 35 34 36 41 40 39 37 35 34 30 28 25 24 21 19 18 15 12 11 10 8 6 5 4 3 4 6 10 12 13 12 13 14 13 10 7 8 10 9 10 9 8 8 9 9 10 10 9 10 9 9 9 9 10 10 10
34 37 38 40 44 50 56 64 66 65 65 63 61 58 55 53 51 50 47 44 42 44 46 44 42 39 39 36 32 35 36 37 41 40 38 36 34 32 30 28 26 24 23 21 19 16 14 13 11 8 7 6 4 3 4 5 8 12 13 13 14 14 12 10 7 9 10 10 10 9 8 8 10 10 9 10 9 9 8 8 8 9 10 10 10
34 36 38 39 41 44 49 58 64 67 68 66 65 63 59 55 53 52 49 45 43 45 48 47 45 41 38 35 34 39 42 39 40 39 37 35 33 31 29 28 26 24 23 21 19 17 16 15 12 9 8 6 4 4 4 4 7 11 12 13 14 13 12 10 8 10 11 10 10 10 9 9 10 10 9 9 9 8 8 8 8 9 9 9 9
33 35 37 39 41 42 43 50 60 66 70 69 67 66 63 58 55 54 51 48 44 44 48 49 47 43 38 36 38 41 46 44 41 40 38 37 35 33 31 30 28 26 24 22 20 18 17 16 15 12 9 7 6 4 4 4 5 9 11 12 13 13 12 10 8 10 11 10 10 10 10 9 9 9 9 8 8 9 8 7 8 9 8 9 9
32 33 35 38 41 42 41 45 54 61 67 70 69 67 65 61 58 57 53 49 45 44 49 49 46 43 38 39 43 43 46 48 46 43 41 39 36 34 33 32 30 28 25 23 22 19 17 17 16 14 12 10 8 5 4 4 4 7 9 11 13 14 12 10 9 11 11 10 10 10 10 10 9 9 8 8 9 9 8 7 8 8 8 8 8
31 32 34 35 38 41 41 42 49 58 65 69 71 70 68 65 62 59 55 52 48 47 50 51 47 44 41 42 46 46 46 47 47 45 43 40 38 37 35 34 32 28 26 25 23 20 19 18 16 15 14 13 10 8 6 5 4 5 7 9 12 14 12 11 11 11 11 11 10 10 10 9 9 9 8 9 9 8 7 7 8 8 8 8 8
31 33 35 36 35 38 42 43 44 51 63 70 72 72 70 67 64 60 56 53 51 50 52 53 50 47 47 46 44 44 46 47 46 45 44 41 40 40 38 35 33 29 28 26 23 21 20 19 18 16 14 13 12 10 8 7 6 6 6 7 10 12 13 12 11 11 11 11 10 10 9 9 9 9 8 8 8 7 7 8 8 8 8 8 8
32 34 35 37 37 37 42 46 44 43 51 64 71 72 70 67 65 63 57 52 50 51 52 53 53 50 47 46 44 43 41 41 44 44 44 44 42 41 39 36 34 31 29 27 24 23 22 21 20 18 15 13 12 11 10 8 7 6 6 6 8 10 12 13 12 11 11 11 10 10 9 9 8 9 8 8 7 7 7 7 7 7 7 7 8
33 35 36 38 39 39 42 45 46 45 44 53 64 70 71 69 66 65 60 56 53 51 50 52 55 53 49 45 42 40 38 40 44 44 44 44 43 43 41 38 36 32 30 29 27 26 24 22 21 18 16 14 13 12 10 9 8 7 7 7 8 9 10 12 13 12 11 11 11 10 10 9 9 8 8 7 7 7 7 7 6 7 7 7 7
35 37 37 38 39 40 43 43 41 44 44 45 59 69 71 71 68 66 64 60 57 54 52 53 54 54 54 49 39 34 40 47 46 43 45 46 45 44 43 40 37 35 33 31 30 29 26 23 21 19 18 16 15 14 12 11 10 9 9 10 9 9 10 12 13 12 11 11 11 10 10 10 9 8 8 7 7 7 6 6 6 6 6 5 4
36 38 38 38 40 40 43 42 35 37 41 40 53 69 72 72 70 67 65 61 58 58 57 57 54 53 55 55 50 44 48 53 48 41 42 45 45 45 44 42 40 37 35 34 33 30 27 24 23 21 20 18 17 16 14 13 12 11 10 11 10 10 11 12 13 12 11 11 11 10 10 10 10 8 8 7 7 7 6 6 6 5 5 4 2
29 32 34 35 37 38 42 40 32 34 43 42 45 61 72 75 71 66 65 63 59 59 60 58 56 55 54 56 56 52 50 54 54 47 42 42 44 45 45 43 41 39 37 36 34 31 29 27 25 23 22 21 19 17 16 15 14 13 12 12 11 11 12 13 13 13 11 11 11 11 11 10 10 9 8 8 7 7 7 6 6 5 5 4 2
24 26 28 30 34 36 39 38 34 35 44 48 44 52 67 72 70 66 64 64 61 57 56 57 59 58 57 55 54 50 47 51 57 54 49 48 47 45 46 44 42 41 39 37 35 33 31 29 27 25 24 23 21 19 19 18 16 16 15 13 12 12 12 13 14 13 12 11 11 11 10 10 10 9 9 8 8 7 7 6 5 4 5 4 2
25 26 26 28 31 35 35 36 37 36 41 47 45 48 61 67 69 68 65 64 62 55 51 53 58 60 60 58 55 50 43 44 52 54 51 51 50 47 48 46 44 44 42 38 36 34 32 30 29 28 26 25 23 23 22 20 18 18 17 15 14 14 13 12 13 14 13 12 11 11 10 10 10 10 9 8 8 7 7 7 6 4 4 4 2
27 29 28 26 27 31 34 35 37 37 39 46 47 44 55 65 68 69 66 62 60 56 49 48 54 60 61 60 59 55 45 41 49 53 49 47 50 51 51 50 49 47 43 40 38 36 34 33 31 30 29 28 26 25 24 22 21 20 18 17 16 15 15 14 13 13 13 12 12 11 11 11 10 10 9 9 8 8 7 7 6 4 3 3 1
29 32 32 28 24 28 33 34 35 35 36 44 46 42 49 63 67 66 63 59 57 56 51 48 53 58 59 59 60 62 57 50 51 53 50 47 48 50 51 50 49 47 44 43 40 38 37 36 35 34 33 30 28 27 26 24 23 21 19 18 17 17 17 16 15 14 14 14 13 12 11 11 11 10 10 9 8 8 8 7 6 5 4 3 1
31 36 36 31 25 26 32 33 33 33 34 39 43 45 48 58 65 64 60 57 57 57 54 53 55 55 55 57 59 61 62 57 53 52 52 49 46 48 50 49 47 44 43 43 42 40 39 39 38 37 34 31 30 29 29 28 26 23 21 20 19 19 18 17 17 15 15 15 14 13 12 12 11 11 10 9 9 8 8 8 7 5 4 3 2
36 39 41 40 32 25 30 33 31 28 31 33 37 47 54 56 60 62 59 58 59 58 55 54 54 51 51 54 57 59 60 57 53 51 51 50 46 45 48 48 46 44 43 42 42 41 41 41 40 38 36 34 32 32 32 31 29 26 24 23 22 21 20 18 17 17 16 17 16 14 13 12 12 11 11 10 9 9 9 8 7 6 5 3 3
40 36 36 41 35 27 29 31 29 29 32 33 33 44 54 56 58 60 58 57 58 57 55 55 53 48 46 48 52 56 58 57 54 50 48 50 49 46 45 43 43 44 43 42 43 43 43 44 42 40 38 37 36 36 36 34 31 29 27 26 25 24 23 22 19 18 18 18 18 15 14 13 12 12 11 11 10 10 9 8 8 6 5 4 4
34 22 23 32 31 28 28 28 29 31 34 35 34 40 49 54 55 57 56 55 57 59 57 55 52 47 45 45 47 53 56 56 53 49 47 48 49 48 46 44 42 41 41 41 43 45 45 45 44 42 41 40 39 39 38 36 34 32 30 29 29 27 25 25 23 20 19 19 19 17 15 14 13 13 12 11 11 9 8 8 8 7 6 5 3
22 9 15 26 29 30 30 32 34 33 33 33 33 38 48 52 52 53 54 54 56 58 56 53 50 47 46 45 47 50 53 53 53 52 50 49 49 48 48 47 44 41 39 40 43 46 47 46 44 44 43 42 42 41 40 39 37 35 33 32 32 30 28 27 27 24 21 21 21 19 16 15 14 14 13 11 11 9 9 9 9 7 7 5 4
13 4 14 20 25 29 31 33 33 32 33 32 31 37 47 52 52 51 51 51 53 55 54 53 51 49 48 47 47 49 50 50 52 53 52 52 52 50 48 47 45 42 41 42 44 45 45 46 45 44 44 44 44 44 43 41 40 38 37 36 34 33 31 30 29 27 25 24 23 20 18 17 16 15 13 12 11 10 10 10 9 8 6 5 4
8 6 15 18 20 25 28 30 31 32 35 36 37 39 45 51 52 50 51 52 53 53 53 53 52 51 50 49 49 50 48 48 49 50 50 50 50 49 48 46 44 44 44 43 41 40 42 45 45 41 41 43 45 46 46 44 43 42 40 38 37 35 33 31 30 30 28 27 25 21 19 18 17 16 15 13 11 11 10 9 9 8 6 5 6
6 5 15 22 24 27 30 31 34 36 37 39 42 44 45 50 52 51 52 53 52 52 53 53 52 52 52 51 50 49 46 46 47 47 47 47 47 48 47 45 44 44 44 41 39 39 40 41 40 36 36 40 45 46 47 47 46 45 43 41 39 37 35 33 32 31 30 29 28 25 21 18 18 18 16 14 12 11 11 10 10 9 7 7 7
5 4 12 22 26 28 30 30 32 36 38 40 44 47 48 51 51 52 52 50 49 51 51 52 51 51 51 50 49 47 45 46 47 46 46 46 47 46 45 43 42 42 41 41 41 40 38 36 34 32 34 38 44 45 46 48 47 47 46 43 41 40 37 36 35 34 34 33 33 30 25 21 20 20 18 15 13 12 12 12 11 10 10 9 8
7 7 10 17 24 27 28 30 32 34 38 41 44 47 49 51 50 51 51 49 47 46 46 48 48 48 48 48 47 47 45 46 46 45 46 46 45 45 44 44 43 43 42 42 42 41 39 38 36 34 34 36 41 44 46 47 48 49 48 46 45 42 40 38 38 38 38 38 37 35 30 24 22 23 22 18 15 15 14 13 13 13 11 9 8
6 11 13 15 21 25 26 29 32 34 37 41 45 46 49 50 47 47 47 46 44 43 44 45 44 44 45 45 46 46 46 46 46 46 46 45 45 44 44 44 45 45 44 44 43 43 42 41 40 38 35 35 38 41 43 44 46 49 50 49 47 45 43 42 41 41 41 41 40 38 34 29 28 30 28 25 23 20 18 17 16 13 10 10 10
5 10 15 18 21 25 27 29 33 35 38 42 44 45 45 44 42 42 44 44 43 43 42 42 41 42 42 43 44 45 46 47 48 46 46 45 44 44 43 44 45 45 45 45 44 44 43 41 40 40 38 36 36 37 39 41 45 49 51 50 49 47 46 45 44 43 43 43 43 42 39 36 36 37 34 31 28 25 23 19 15 13 13 13 13
9 10 13 17 21 26 29 31 33 36 39 41 42 42 42 40 39 39 41 42 42 41 39 39 39 39 40 41 42 44 45 47 47 46 45 45 45 44 44 44 45 45 46 46 45 44 43 42 42 41 40 39 38 37 37 40 43 48 50 50 50 49 48 47 46 45 45 45 45 44 41 40 41 42 39 35 31 29 27 23 19 19 18 17 15
11 13 14 15 18 22 27 31 34 36 39 40 41 42 43 42 41 39 38 38 38 37 37 36 36 37 37 38 39 41 44 45 45 45 45 45 45 44 44 44 44 45 46 47 46 45 44 45 44 43 42 42 41 40 39 38 40 45 49 50 51 50 50 49 48 47 46 46 46 44 43 42 43 43 40 37 34 32 30 26 25 25 23 20 19
11 13 15 16 18 19 22 26 31 34 36 37 40 41 42 41 40 39 38 37 35 34 35 34 34 35 34 34 35 38 41 42 42 42 42 42 43 44 45 45 44 44 46 47 47 46 46 47 47 46 45 45 44 42 41 39 39 42 46 49 50 51 51 50 49 48 47 46 46 45 44 44 43 43 40 38 35 32 31 30 29 28 26 23 21
12 13 14 16 17 19 20 23 26 28 29 31 34 36 37 37 38 38 38 37 36 34 34 33 33 33 33 33 34 36 38 38 38 38 37 36 37 39 41 41 42 43 45 46 47 48 48 48 49 49 48 47 46 44 42 40 38 40 43 46 50 51 52 52 51 50 48 47 46 46 46 45 43 42 41 39 36 33 33 33 31 29 27 25 23
14 14 15 16 17 19 21 22 24 25 25 26 27 29 31 32 33 34 35 35 35 35 34 33 33 32 32 32 33 34 35 35 35 35 35 34 33 33 33 34 37 39 41 44 47 48 49 49 50 50 49 49 48 46 44 41 40 42 44 46 49 50 51 52 53 52 51 50 48 47 47 46 45 45 43 41 39 37 36 34 32 30 28 26 25
17 16 16 17 18 20 21 23 24 25 25 26 26 26 26 27 27 28 29 30 31 31 31 30 30 30 30 30 31 31 32 32 33 34 35 35 36 35 34 34 36 38 40 44 46 48 49 49 49 49 50 50 49 49 48 46 46 46 45 46 47 48 50 52 54 54 54 53 52 51 50 49 49 49 47 45 43 40 37 35 33 31 29 27 26
21 20 19 19 20 20 22 23 25 26 27 27 27 26 26 26 26 26 26 27 27 27 28 28 29 30 31 31 31 31 32 33 34 35 36 38 39 39 38 38 39 40 42 44 46 47 47 47 48 49 49 50 51 50 50 49 47 46 45 45 46 48 51 53 54 54 55 55 54 54 54 53 52 51 50 47 44 41 38 36 34 31 29 28 27
23 23 22 22 22 22 23 24 25 27 28 28 29 28 28 28 27 27 27 27 27 28 29 29 30 31 32 33 33 34 34 35 36 36 37 38 39 39 39 40 40 41 42 43 44 45 46 46 47 47 49 50 49 49 49 48 46 46 46 46 46 48 51 53 54 55 55 56 56 56 56 56 54 53 51 49 45 42 39 36 33 31 30 29 28
24 25 25 24 24 24 24 25 26 27 28 28 29 30 30 30 30 29 29 29 29 30 30 31 32 32 33 33 34 35 35 36 36 36 36 37 37 37 38 39 39 40 41 42 43 43 44 44 45 47 48 47 47 48 47 45 44 44 46 46 46 48 50 53 54 54 54 54 57 58 57 56 56 54 53 50 45 41 39 37 34 32 31 30 29
25 26 26 25 25 26 26 26 27 27 28 28 30 30 31 31 31 31 32 32 32 32 33 33 33 33 34 34 34 34 35 35 34 34 34 34 35 35 36 37 38 39 40 41 42 42 43 43 45 46 45 44 45 45 42 41 42 44 45 46 46 48 50 51 53 54 54 54 57 58 58 58 57 55 54 51 45 41 39 37 35 33 32 32 31
25 27 27 27 26 26 26 27 27 27 27 28 29 30 31 32 33 33 34 34 35 35 35 35 35 35 35 35 35 35 35 35 35 34 34 34 34 34 34 35 37 38 39 40 40 41 43 44 45 45 43 42 43 42 39 39 40 41 41 42 43 45 47 49 51 54 55 54 54 56 57 58 58 56 55 51 44 42 40 38 36 34 34 34 32
25 25 26 27 27 27 27 27 27 27 27 27 28 28 30 31 32 33 33 34 35 36 36 36 36 36 36 36 36 36 36 36 36 35 35 35 35 35 35 35 35 35 36 37 37 39 41 42 43 43 42 42 41 41 39 38 37 38 38 39 39 40 43 47 50 53 54 54 53 53 55 55 55 56 54 49 43 42 41 39 37 35 35 35 34
25 25 26 27 27 28 28 27 27 28 27 27 28 28 29 29 30 30 31 32 32 33 34 34 35 35 36 36 37 37 38 38 38 38 38 37 36 36 35 35 34 34 34 34 33 33 35 37 37 38 39 40 39 40 40 38 37 38 38 38 39 41 43 46 49 52 53 54 54 54 53 52 52 53 52 47 44 44 43 40 37 37 37 36 35
26 26 26 26 27 27 28 28 28 28 27 27 27 28 28 29 29 30 30 31 31 31 31 31 32 32 32 32 33 34 35 35 36 37 37 38 39 39 38 37 35 35 35 33 32 32 33 33 33 34 37 38 38 39 40 39 39 39 39 40 41 42 44 46 48 50 51 52 53 53 52 51 50 49 48 47 45 45 43 40 38 38 38 37 36
26 26 26 26 26 27 27 28 28 28 27 27 26 27 27 27 28 28 29 29 29 29 29 29 29 29 29 29 30 30 30 30 30 31 31 33 36 38 40 42 41 40 38 37 36 35 33 32 32 32 35 36 37 39 40 41 41 41 41 40 40 40 43 45 47 48 49 51 52 52 51 52 50 47 45 46 47 46 43 40 39 40 39 38 38
27 26 26 26 26 26 26 27 28 27 27 27 27 27 27 27 27 28 28 28 28 27 27 26 26 26 26 25 25 25 25 25 25 26 26 27 30 33 36 38 41 42 42 40 38 36 34 33 33 34 35 36 37 39 40 41 42 42 41 40 39 41 42 42 43 46 48 50 51 50 51 51 49 47 46 46 46 45 43 41 41 41 41 39 39
Wind_Direction
228 222 218 215 217 216 213 211 208 208 206 200 197 195 196 201 204 204 203 201 198 197 190 185 189 193 194 195 194 195 193 189 189 187 179 174 175 182 187 184 174 171 177 172 169 165 138 122 122 116 108 114 119 123 130 131 129 127 124 123 122 120 119 118 117 113 110 108 107 106 105 102 102 102 98 94 92 92 91 88 86 84 82 81 77
228 226 220 214 215 215 213 212 209 208 207 203 202 199 198 202 203 204 203 200 199 197 190 186 191 195 196 196 194 195 194 191 193 186 179 179 179 183 189 188 181 177 180 177 175 180 156 137 136 124 112 117 123 129 135 136 134 132 130 128 127 124 124 125 121 115 112 112 109 108 107 104 105 104 97 96 94 93 92 89 86 86 85 81 79
226 224 221 216 214 214 213 211 209 209 209 208 207 202 200 204 205 205 204 202 201 197 192 190 191 195 196 197 195 193 194 194 196 191 185 186 186 188 191 189 186 184 185 181 182 193 173 150 149 135 124 123 129 137 142 144 141 138 137 134 131 128 126 128 121 116 115 114 113 110 109 108 108 104 99 98 95 94 94 89 89 88 85 83 80
228 225 221 216 213 213 212 210 210 211 211 210 209 206 205 207 206 206 204 205 205 198 195 195 193 194 196 198 197 194 196 198 197 195 192 190 190 191 191 189 188 190 188 178 182 197 182 163 159 144 135 132 136 146 151 151 148 142 141 136 133 131 128 131 124 118 118 118 117 114 112 112 110 104 102 100 96 98 96 90 92 89 86 84 80
229 229 227 222 215 212 213 212 212 213 213 211 211 211 209 208 206 203 202 204 206 200 196 197 196 198 200 198 198 195 198 200 197 198 199 196 196 194 188 187 189 193 189 181 187 193 180 170 164 152 142 139 140 151 157 156 154 145 142 138 136 135 133 135 131 123 123 124 122 118 115 114 111 106 105 103 99 101 97 92 92 90 88 85 81
229 230 231 229 222 217 219 217 215 216 214 210 212 212 208 207 205 203 203 204 205 202 199 197 195 200 205 200 198 196 197 202 199 198 200 201 202 198 189 187 189 191 187 183 189 186 177 171 163 157 145 141 143 151 159 161 157 148 145 143 141 140 138 142 141 130 129 131 126 121 120 118 114 109 107 106 102 101 97 93 92 91 89 85 82
232 231 232 234 228 223 222 220 219 220 214 210 212 211 207 207 207 204 204 204 204 203 200 195 192 199 207 204 200 198 198 203 200 194 196 198 200 198 194 194 191 189 186 181 183 183 180 171 161 159 153 154 153 157 169 168 161 152 150 150 146 144 142 149 155 139 134 134 130 126 126 121 116 113 110 108 104 102 99 94 93 93 90 85 84
233 232 234 237 235 229 222 218 220 219 213 212 212 210 209 208 207 205 204 203 202 203 201 194 190 197 206 207 201 200 201 202 199 195 196 197 197 196 195 194 190 188 187 182 181 179 174 168 165 165 167 171 167 178 193 180 168 159 159 156 150 148 147 155 164 147 138 136 134 132 131 127 121 118 113 109 105 105 101 96 96 94 90 88 86
238 235 235 237 238 235 224 216 216 215 212 211 211 211 210 208 207 208 207 205 202 201 200 194 189 194 203 205 199 199 203 201 198 197 197 198 197 195 192 190 188 188 188 186 184 178 171 169 172 172 170 171 176 203 213 197 182 169 163 158 152 153 154 162 165 147 142 140 138 136 137 132 124 122 117 112 111 109 103 99 98 93 91 91 87
244 241 241 243 241 238 229 217 213 212 211 210 210 210 209 208 207 208 208 207 204 200 199 196 192 194 200 200 195 198 201 201 201 200 198 199 199 197 196 194 192 192 193 192 188 181 175 174 175 172 166 172 192 215 222 211 193 178 168 161 157 157 160 170 168 147 144 143 140 138 138 134 128 126 121 117 115 112 107 102 98 94 94 94 89
246 245 245 248 248 247 241 227 214 208 208 207 206 206 206 208 207 206 207 206 205 201 198 197 196 196 199 196 194 197 198 197 201 204 201 201 200 199 199 197 196 196 197 196 193 190 184 179 178 174 170 182 197 213 234 227 201 188 177 169 161 159 167 180 174 152 147 147 145 142 138 135 131 129 126 122 118 116 113 107 101 97 95 94 92
245 245 244 247 249 251 251 240 222 208 205 204 202 204 205 206 206 205 204 202 203 202 197 195 196 196 197 195 192 194 197 194 195 199 200 200 200 199 199 199 197 197 199 199 198 196 191 185 181 178 178 184 191 202 234 241 218 203 188 179 167 163 176 188 176 156 150 151 150 145 141 138 134 132 131 127 121 121 119 112 106 101 95 94 93
245 245 245 245 246 248 248 246 232 214 206 204 204 206 206 205 204 204 203 199 198 200 196 193 192 189 189 190 188 191 195 193 192 195 196 198 199 198 198 199 196 198 202 200 200 198 192 190 188 186 184 183 187 197 216 232 232 220 203 191 177 170 178 183 173 160 153 154 153 149 146 143 139 137 135 130 126 125 121 115 111 104 99 97 95
245 245 245 245 245 246 244 244 238 220 210 206 205 206 203 201 201 202 202 198 196 197 197 194 190 186 186 184 181 185 191 190 190 193 194 196 197 196 196 197 198 201 202 199 202 202 196 196 195 190 186 187 193 198 206 218 226 231 225 213 197 184 179 175 172 166 159 158 156 153 152 149 144 141 139 135 131 129 124 119 114 107 101 99 95
250 249 249 247 244 244 244 244 243 234 218 207 203 202 199 198 201 202 199 195 195 197 198 196 192 187 184 181 179 179 184 188 189 191 193 194 195 195 195 198 201 201 200 200 204 205 199 198 197 193 192 195 200 203 206 208 219 236 240 236 221 204 188 174 173 171 163 161 160 158 157 155 149 145 144 140 135 132 128 123 116 109 105 100 96
257 255 255 254 250 244 243 245 246 246 234 211 200 197 195 197 201 203 199 193 190 192 196 198 197 192 184 179 180 178 180 187 191 192 194 195 195 195 195 198 200 200 201 203 205 204 201 199 198 199 199 200 203 208 208 202 213 236 244 245 235 220 204 183 176 176 169 165 164 162 162 160 155 151 151 147 141 137 132 129 122 113 108 102 97
264 261 259 259 258 252 246 248 246 244 243 222 201 196 197 199 201 202 202 197 190 188 191 196 200 200 193 183 177 179 185 190 192 194 195 196 195 195 196 197 198 200 203 205 205 203 200 201 203 206 205 204 208 213 211 205 214 232 241 243 233 221 214 194 181 180 176 171 168 166 165 163 160 157 159 156 149 146 140 134 127 118 114 110 104
271 265 262 259 258 256 251 251 245 238 244 233 206 197 198 201 202 202 203 202 196 188 188 195 200 203 202 195 188 188 192 191 189 189 192 195 195 195 197 199 199 201 204 204 203 202 201 203 207 210 211 211 213 216 217 214 219 230 240 241 228 213 209 197 187 186 182 177 174 172 170 168 165 163 167 168 160 154 149 140 135 131 127 131 132
275 264 262 260 255 254 252 249 242 233 239 241 217 199 198 200 203 205 204 202 199 192 189 194 197 200 204 202 197 196 198 196 191 189 190 193 197 199 199 200 201 202 204 203 201 201 203 206 209 211 215 217 217 219 222 220 218 223 232 237 226 208 201 195 191 192 189 185 182 178 177 174 170 170 173 173 170 161 153 149 152 151 143 151 167
274 264 261 263 258 255 252 244 237 232 234 240 230 205 198 198 200 203 204 200 199 199 196 194 194 196 200 202 200 200 202 202 199 197 195 192 194 198 199 201 203 203 203 202 202 203 205 208 211 213 217 220 221 221 224 225 220 218 223 228 222 208 204 200 193 194 195 191 188 183 180 179 176 177 180 178 177 170 160 163 175 169 160 173 190
271 265 264 264 259 254 250 239 232 230 229 235 235 213 199 196 195 197 200 199 198 201 202 199 197 196 197 200 202 203 202 204 205 204 202 197 193 195 197 199 201 203 203 203 204 206 208 211 213 215 219 221 223 224 226 227 225 222 221 222 217 205 205 206 196 195 201 196 190 188 184 182 181 181 185 184 179 176 168 173 189 185 177 189 194
277 271 269 267 259 249 243 234 227 225 225 231 234 220 202 196 197 197 197 198 198 200 204 206 203 201 200 200 203 204 202 202 205 204 204 201 198 198 199 199 200 201 202 204 206 207 210 213 215 216 218 220 223 225 228 229 229 229 226 225 221 206 200 205 205 201 204 201 193 194 191 183 187 188 187 188 185 179 174 180 198 201 195 206 207
284 280 272 265 259 244 233 227 223 222 223 228 233 226 204 196 199 199 196 197 199 200 205 208 206 203 203 202 204 206 204 204 205 204 203 202 201 200 200 201 201 201 202 204 206 208 210 213 216 217 218 220 224 227 230 230 231 233 232 230 228 217 203 203 212 209 205 205 196 198 198 186 191 196 190 189 186 181 182 191 206 211 211 215 214
282 283 274 266 259 239 223 219 219 218 220 226 234 229 210 196 196 197 195 196 199 202 204 206 205 205 206 205 205 207 208 209 210 209 208 208 208 205 202 201 200 201 204 205 207 209 213 215 216 217 219 222 226 229 232 232 232 233 234 232 230 227 217 207 207 205 208 213 205 198 197 192 197 200 191 190 188 187 196 203 207 214 223 224 231
279 278 269 263 259 238 218 216 214 212 216 223 229 223 210 198 194 195 195 196 200 203 204 205 206 207 209 208 207 208 210 213 215 215 213 210 210 207 203 201 201 203 205 208 210 212 215 217 218 218 221 224 228 231 232 232 232 232 233 233 231 231 231 224 211 203 209 217 210 199 197 197 202 203 195 193 195 198 205 207 206 215 230 234 243
293 283 259 250 249 231 217 217 213 211 214 219 223 216 207 201 197 196 198 199 201 203 205 206 207 209 211 210 210 211 211 214 216 216 214 211 210 209 205 200 200 206 208 208 211 214 217 219 219 220 223 227 230 232 233 231 231 232 231 232 234 234 235 234 224 210 209 217 212 203 202 201 200 205 204 199 200 202 203 207 212 219 236 239 242
308 292 239 229 229 220 217 215 209 211 215 217 221 217 207 204 202 200 200 200 202 204 206 207 207 209 212 212 211 211 211 214 215 215 215 214 214 216 215 207 201 205 209 210 212 216 219 220 220 223 226 229 231 233 233 232 231 232 230 231 236 238 236 235 232 218 209 216 218 210 208 208 201 205 210 204 200 200 198 207 219 225 235 240 244
320 289 209 205 207 207 209 207 206 215 220 216 219 219 210 205 204 202 201 202 203 205 208 208 208 210 211 212 212 212 212 215 216 216 218 221 224 229 230 224 213 208 209 211 215 219 221 221 222 226 229 231 233 234 233 233 233 232 231 232 235 237 236 235 235 226 211 213 221 215 211 211 204 202 205 202 199 199 202 214 224 229 233 239 245
331 239 188 194 204 205 206 208 213 222 222 215 218 218 211 208 206 204 204 205 206 208 208 209 210 210 211 212 213 214 216 218 219 221 223 227 231 234 234 232 229 223 217 214 219 224 226 226 227 230 232 232 233 234 233 233 234 233 232 232 233 235 236 235 235 232 220 215 217 213 207 209 209 204 200 199 200 200 208 219 223 225 225 224 234
335 222 188 187 198 200 203 209 214 220 220 217 220 218 213 212 210 207 207 209 210 209 209 210 210 210 212 213 214 217 220 222 224 226 229 230 232 232 231 232 236 237 231 225 229 236 237 232 230 235 238 236 234 233 234 234 234 234 232 231 232 233 235 235 234 232 228 222 219 213 206 209 219 215 200 195 203 205 207 214 219 220 213 210 229
333 246 204 195 196 199 206 213 216 219 220 219 220 217 214 213 211 209 210 211 211 210 208 210 211 212 214 216 217 220 223 225 226 228 230 230 230 230 230 233 236 237 236 236 240 247 246 238 235 241 246 242 238 235 235 235 235 234 232 230 231 232 233 234 233 231 228 225 225 221 212 213 225 224 206 196 207 214 209 207 211 211 207 218 241
307 259 217 207 208 212 215 219 222 222 220 219 217 215 212 211 210 211 212 213 214 213 210 211 212 213 215 218 220 222 223 225 226 227 228 228 229 229 230 231 232 231 234 238 241 245 247 244 243 250 252 247 242 238 237 237 236 234 233 232 232 232 231 231 231 230 227 226 228 228 227 225 223 221 210 199 209 219 213 207 208 209 215 233 255
273 238 221 211 212 217 218 218 220 220 218 216 213 213 212 209 209 211 214 215 217 217 215 215 215 216 218 219 222 223 224 226 228 228 228 229 230 232 233 233 233 235 236 237 238 240 244 247 249 252 251 248 245 241 239 239 238 236 235 234 233 231 231 230 229 229 229 230 230 232 235 230 220 218 214 210 222 229 218 211 213 216 227 249 267
256 228 223 216 212 215 217 218 218 217 217 215 212 212 212 210 209 213 217 219 219 219 218 219 220 221 221 222 224 225 226 228 229 230 230 231 233 235 236 237 238 239 238 238 239 241 244 248 251 251 249 246 243 242 242 243 243 241 237 236 234 232 231 231 230 230 230 231 231 232 232 224 218 221 222 226 238 239 229 223 224 230 250 268 271
214 213 217 219 216 215 215 216 216 216 216 214 212 212 213 212 212 216 219 221 222 222 222 223 225 227 227 227 227 228 229 229 230 231 233 234 236 238 239 240 241 241 240 239 240 242 245 249 252 252 251 247 244 243 243 243 244 242 238 237 236 235 233 232 232 231 231 231 231 231 230 224 222 225 229 236 241 238 234 236 243 257 271 272 269
197 194 199 209 213 214 215 215 215 215 214 213 212 213 214 213 214 216 219 222 224 225 226 228 230 231 232 232 232 232 233 232 232 233 235 237 238 240 241 242 242 242 242 241 241 243 246 249 252 252 251 250 247 245 243 242 241 239 237 236 236 235 234 232 231 231 230 230 231 231 230 227 226 228 232 234 233 233 238 245 257 267 270 269 268
203 195 190 194 200 206 212 216 216 215 214 214 214 214 214 213 214 217 220 222 225 228 230 232 234 236 237 237 237 237 237 236 236 236 238 239 240 241 241 242 244 245 245 244 244 245 246 249 251 251 251 251 249 247 246 243 240 236 233 233 234 234 233 231 230 229 228 228 230 230 230 228 228 230 231 230 231 236 243 249 258 264 267 267 266
214 206 199 195 194 197 203 210 215 216 216 217 218 218 218 218 218 220 222 224 226 230 233 235 237 239 241 242 243 242 242 242 242 242 242 242 243 244 244 244 245 246 247 248 248 247 247 248 249 250 251 252 251 250 248 246 242 237 233 232 233 233 231 230 228 226 225 225 227 227 228 228 228 229 230 231 234 239 245 250 255 259 262 263 262
221 217 213 206 200 199 199 202 207 212 215 218 221 222 223 224 224 225 226 227 229 233 236 239 241 243 245 246 247 247 247 248 248 247 246 246 248 250 251 251 250 249 250 251 251 249 246 245 246 247 249 250 250 249 248 245 241 238 236 234 232 230 229 228 228 226 223 223 224 226 227 228 229 228 228 230 234 237 242 247 250 252 256 258 257
228 222 220 216 211 206 204 203 204 207 210 214 217 221 224 227 228 230 231 232 234 237 239 241 244 246 248 250 250 250 250 250 250 249 248 248 250 255 258 259 256 254 254 254 253 251 248 245 245 245 246 247 247 247 246 242 239 240 240 237 233 232 231 229 227 226 224 223 223 224 225 226 226 225 226 228 232 236 240 243 244 247 250 251 252
236 228 221 219 217 214 211 208 207 208 210 212 214 216 219 222 225 229 232 234 236 238 240 242 244 246 247 248 250 250 251 251 252 251 251 250 250 254 259 260 258 257 256 255 253 251 248 246 245 244 244 244 245 246 245 246 248 248 245 238 234 234 232 228 226 225 225 225 224 224 224 224 223 223 225 229 233 237 238 239 240 242 245 246 248
239 235 229 224 220 219 217 215 213 212 213 214 215 217 218 219 220 223 226 230 232 234 237 239 241 243 246 247 249 250 252 252 252 252 253 252 252 254 257 260 260 260 258 256 254 252 250 248 247 247 246 245 247 249 250 252 252 251 248 244 237 232 228 226 225 225 225 225 225 225 225 225 225 226 228 231 236 238 237 236 237 239 242 244 246
238 237 234 231 226 222 221 219 219 218 217 217 218 218 219 220 221 222 224 227 230 233 235 238 240 243 245 247 248 249 250 250 251 252 253 254 255 256 258 260 261 261 261 259 257 256 254 252 252 251 250 249 252 253 253 253 251 251 251 247 239 232 228 227 226 227 227 227 225 225 225 225 226 228 229 232 237 238 236 235 235 238 241 242 244
239 237 235 233 230 227 223 221 220 220 220 220 220 221 221 222 223 224 225 227 229 232 234 237 239 241 242 244 245 246 246 247 248 250 251 253 255 257 258 260 261 261 261 261 261 260 259 257 255 254 254 255 255 254 253 255 256 255 251 245 240 237 236 233 232 231 231 229 225 224 224 225 226 227 229 233 237 236 234 234 234 237 239 240 241
238 237 236 234 231 229 227 224 222 221 220 220 220 221 222 223 224 224 225 226 228 229 232 233 235 236 237 239 240 241 243 244 246 247 249 251 253 255 257 258 258 259 259 260 262 263 263 263 260 259 261 261 259 259 261 262 260 255 249 246 244 241 240 239 237 236 233 228 223 222 223 225 226 227 230 234 234 232 231 231 232 235 237 238 239
236 235 235 235 234 233 230 228 226 224 223 222 221 221 222 223 224 225 226 227 228 229 230 231 233 234 236 237 239 240 242 243 244 245 246 247 249 250 252 253 255 256 256 256 257 259 260 261 261 262 265 265 265 267 268 265 260 257 256 255 253 248 245 242 237 234 233 229 224 222 223 225 226 227 230 233 232 229 229 229 229 232 235 236 237
238 235 234 233 234 234 233 232 230 228 227 226 225 225 224 224 225 226 228 229 229 231 232 233 235 237 238 240 242 243 245 246 247 248 248 248 247 247 247 248 250 252 254 255 256 257 259 260 262 265 267 268 269 269 268 266 264 263 262 261 258 253 246 240 234 232 232 230 226 224 225 227 228 228 231 233 229 226 226 226 227 230 233 234 236
238 234 232 231 231 232 233 233 232 231 230 229 228 228 228 228 229 229 230 231 232 234 235 237 239 241 242 245 246 247 249 249 250 250 250 250 250 249 248 248 248 249 251 252 254 256 259 262 263 266 267 268 268 267 266 265 263 260 256 253 250 246 241 236 232 232 232 230 227 226 227 230 232 231 233 233 228 225 224 224 225 228 230 232 235
240 237 234 232 230 230 231 232 233 233 231 230 230 231 231 231 231 231 232 233 234 236 238 240 242 244 246 248 249 251 252 252 253 253 253 253 253 252 252 253 252 252 252 252 252 253 254 256 258 260 262 263 263 263 263 261 259 256 253 249 246 244 240 236 234 236 236 234 231 228 227 230 233 232 233 232 227 224 224 223 224 227 229 231 235
243 241 238 235 233 231 231 232 233 233 232 231 232 233 233 233 233 234 235 236 236 238 239 240 242 244 245 247 248 250 251 253 254 254 254 254 254 254 252 252 252 252 252 253 253 252 250 249 250 252 254 256 257 257 258 257 255 255 254 253 251 248 243 240 242 242 240 237 236 230 226 228 230 231 231 230 227 225 224 222 223 226 228 231 233
241 241 239 237 236 235 234 234 234 234 233 232 232 233 234 233 233 234 236 237 239 240 240 241 243 244 247 249 252 256 259 261 261 260 260 257 254 252 251 250 250 250 249 250 251 251 250 249 248 248 249 251 252 252 254 254 253 254 256 257 255 251 247 245 244 241 236 236 236 230 226 228 229 228 227 226 224 223 222 221 221 224 227 230 233